Hourly Weather Bolshie Ryabinki

Today, 24 July, Saturday

Time Temperature Precipitation Wind Pressure Humidity
00:00 +16°C° 0 mm 2 mps 740 mmHg 81%
01:00 +16°C° 0 mm 2 mps 740 mmHg 82%
02:00 +16°C° 0 mm 2 mps 740 mmHg 82%
03:00 +16°C° 0 mm 2 mps 740 mmHg 85%
04:00 +15°C° 0 mm 2 mps 740 mmHg 88%
05:00 +15°C° 0 mm 2 mps 740 mmHg 90%
06:00 +16°C° 0 mm 2 mps 741 mmHg 81%
07:00 +18°C° 0 mm 3 mps 741 mmHg 72%
08:00 +20°C° 0 mm 3 mps 741 mmHg 62%
09:00 +21°C° 0 mm 3 mps 742 mmHg 57%
10:00 +22°C° 0 mm 4 mps 742 mmHg 51%
11:00 +22°C° 0 mm 4 mps 742 mmHg 46%
12:00 +23°C° 0 mm 4 mps 742 mmHg 45%
13:00 +23°C° 0 mm 4 mps 742 mmHg 44%
14:00 +22°C° 0 mm 3 mps 742 mmHg 46%
15:00 +22°C° 0 mm 3 mps 743 mmHg 50%
16:00 +21°C° 0 mm 2 mps 743 mmHg 54%
17:00 +21°C° 0 mm 2 mps 743 mmHg 58%
18:00 +19°C° 0 mm 2 mps 743 mmHg 62%
19:00 +18°C° 0 mm 1 mps 744 mmHg 65%
20:00 +16°C° 0 mm 1 mps 744 mmHg 69%
21:00 +16°C° 0 mm 1 mps 744 mmHg 69%
22:00 +16°C° 0 mm 1 mps 744 mmHg 68%
23:00 +16°C° 0 mm 1 mps 745 mmHg 67%

Tomorrow, 25 July, Sunday

Time Temperature Precipitation Wind Pressure Humidity
00:00 +15°C° 0 mm 1 mps 745 mmHg 68%
01:00 +15°C° 0 mm 1 mps 745 mmHg 69%
02:00 +14°C° 0 mm 0 mps 745 mmHg 70%
03:00 +15°C° 0 mm 1 mps 746 mmHg 71%
04:00 +15°C° 0 mm 1 mps 746 mmHg 73%
05:00 +15°C° 0 mm 1 mps 746 mmHg 74%
06:00 +16°C° 0 mm 1 mps 746 mmHg 68%
07:00 +19°C° 0 mm 1 mps 746 mmHg 63%
08:00 +21°C° 0 mm 1 mps 747 mmHg 57%
09:00 +22°C° 0 mm 1 mps 747 mmHg 53%
10:00 +24°C° 0 mm 1 mps 747 mmHg 48%
11:00 +25°C° 0 mm 1 mps 747 mmHg 43%
12:00 +25°C° 0 mm 1 mps 747 mmHg 43%
13:00 +26°C° 0 mm 1 mps 747 mmHg 42%
14:00 +26°C° 0 mm 1 mps 747 mmHg 41%
15:00 +26°C° 0 mm 1 mps 747 mmHg 45%
16:00 +25°C° 0 mm 1 mps 747 mmHg 48%
17:00 +25°C° 0 mm 1 mps 747 mmHg 51%
18:00 +23°C° 0 mm 1 mps 747 mmHg 55%
19:00 +22°C° 0 mm 1 mps 747 mmHg 60%
20:00 +20°C° 0 mm 1 mps 747 mmHg 64%
21:00 +20°C° 0 mm 1 mps 748 mmHg 64%
22:00 +18°C° 0 mm 2 mps 748 mmHg 64%
23:00 +17°C° 0 mm 2 mps 748 mmHg 65%

Day after tomorrow, 26 July, Monday

Time Temperature Precipitation Wind Pressure Humidity
00:00 +17°C° 0 mm 2 mps 748 mmHg 65%
01:00 +17°C° 0 mm 2 mps 748 mmHg 64%
02:00 +17°C° 0 mm 2 mps 748 mmHg 64%
03:00 +17°C° 0 mm 2 mps 748 mmHg 67%
04:00 +17°C° 0 mm 2 mps 748 mmHg 70%
05:00 +17°C° 0 mm 2 mps 749 mmHg 72%
06:00 +19°C° 0 mm 2 mps 749 mmHg 67%
07:00 +21°C° 0 mm 2 mps 749 mmHg 62%
08:00 +23°C° 0 mm 1 mps 749 mmHg 57%
09:00 +25°C° 0 mm 2 mps 749 mmHg 53%
10:00 +26°C° 0 mm 2 mps 749 mmHg 50%
11:00 +27°C° 0 mm 2 mps 749 mmHg 46%
12:00 +27°C° 0 mm 2 mps 749 mmHg 47%
13:00 +27°C° 0 mm 2 mps 749 mmHg 48%
14:00 +27°C° 0 mm 2 mps 748 mmHg 49%
15:00 +26°C° 0 mm 2 mps 748 mmHg 53%
16:00 +25°C° 0 mm 2 mps 748 mmHg 57%
17:00 +25°C° 0 mm 2 mps 748 mmHg 62%
18:00 +23°C° 0.3 mm 2 mps 748 mmHg 68%
19:00 +20°C° 0.3 mm 2 mps 748 mmHg 74%
20:00 +20°C° 0.3 mm 1 mps 748 mmHg 80%
21:00 +20°C° 0.4 mm 1 mps 749 mmHg 81%
22:00 +19°C° 0.4 mm 1 mps 749 mmHg 82%
23:00 +18°C° 0.4 mm 2 mps 749 mmHg 83%

27 July, Tuesday

Time Temperature Precipitation Wind Pressure Humidity
00:00 +19°C° 0 mm 1 mps 749 mmHg 83%
01:00 +18°C° 0 mm 1 mps 749 mmHg 82%
02:00 +18°C° 0 mm 1 mps 748 mmHg 82%
03:00 +18°C° 0.1 mm 1 mps 749 mmHg 82%
04:00 +16°C° 0.1 mm 0 mps 749 mmHg 82%
05:00 +16°C° 0.1 mm 0 mps 749 mmHg 83%
06:00 +18°C° 0.1 mm 0 mps 749 mmHg 77%
07:00 +20°C° 0.1 mm 0 mps 749 mmHg 72%
08:00 +21°C° 0.1 mm 0 mps 749 mmHg 67%
09:00 +25°C° 0 mm 1 mps 749 mmHg 61%
10:00 +26°C° 0 mm 1 mps 749 mmHg 55%
11:00 +28°C° 0 mm 1 mps 749 mmHg 49%
12:00 +28°C° 0 mm 1 mps 748 mmHg 48%
13:00 +28°C° 0 mm 1 mps 748 mmHg 46%
14:00 +29°C° 0 mm 2 mps 748 mmHg 45%
15:00 +28°C° 0 mm 2 mps 748 mmHg 50%
16:00 +27°C° 0 mm 2 mps 747 mmHg 55%
17:00 +26°C° 0 mm 2 mps 747 mmHg 59%
18:00 +25°C° 0.1 mm 2 mps 747 mmHg 62%
19:00 +24°C° 0.1 mm 2 mps 747 mmHg 65%
20:00 +22°C° 0.1 mm 1 mps 747 mmHg 67%
21:00 +22°C° 0 mm 1 mps 747 mmHg 69%
22:00 +20°C° 0 mm 2 mps 747 mmHg 71%
23:00 +20°C° 0 mm 2 mps 747 mmHg 73%

28 July, Wednesday

Time Temperature Precipitation Wind Pressure Humidity
00:00 +19°C° 0 mm 2 mps 747 mmHg 73%
01:00 +19°C° 0 mm 2 mps 746 mmHg 74%
02:00 +19°C° 0 mm 2 mps 746 mmHg 75%
03:00 +19°C° 0 mm 2 mps 746 mmHg 75%
04:00 +18°C° 0 mm 2 mps 746 mmHg 75%
05:00 +18°C° 0 mm 2 mps 746 mmHg 76%
06:00 +20°C° 0 mm 3 mps 745 mmHg 69%
07:00 +22°C° 0 mm 3 mps 745 mmHg 63%
08:00 +25°C° 0 mm 4 mps 745 mmHg 56%
09:00 +26°C° 0 mm 4 mps 745 mmHg 54%
10:00 +27°C° 0 mm 4 mps 745 mmHg 51%
11:00 +27°C° 0 mm 4 mps 745 mmHg 49%
12:00 +26°C° 0 mm 5 mps 745 mmHg 55%
13:00 +23°C° 0 mm 6 mps 745 mmHg 62%
14:00 +22°C° 0 mm 7 mps 745 mmHg 68%
15:00 +21°C° 0.5 mm 6 mps 744 mmHg 75%
16:00 +20°C° 0.5 mm 5 mps 744 mmHg 82%
17:00 +18°C° 0.5 mm 4 mps 743 mmHg 89%
18:00 +18°C° 0.3 mm 4 mps 743 mmHg 90%
19:00 +18°C° 0.3 mm 4 mps 742 mmHg 91%
20:00 +18°C° 0.3 mm 4 mps 742 mmHg 93%
21:00 +18°C° 0.1 mm 4 mps 741 mmHg 93%
22:00 +18°C° 0.1 mm 4 mps 741 mmHg 93%
23:00 +18°C° 0.1 mm 4 mps 741 mmHg 93%

29 July, Thursday

Time Temperature Precipitation Wind Pressure Humidity
00:00 +18°C° 0 mm 4 mps 740 mmHg 94%
01:00 +18°C° 0 mm 3 mps 740 mmHg 95%
02:00 +17°C° 0 mm 3 mps 739 mmHg 96%
03:00 +17°C° 0 mm 3 mps 739 mmHg 96%
04:00 +17°C° 0 mm 2 mps 739 mmHg 97%
05:00 +17°C° 0 mm 2 mps 738 mmHg 97%
06:00 +18°C° 0 mm 2 mps 738 mmHg 93%
07:00 +19°C° 0 mm 2 mps 738 mmHg 89%
08:00 +22°C° 0 mm 1 mps 738 mmHg 84%
09:00 +21°C° 0.2 mm 2 mps 738 mmHg 84%
10:00 +21°C° 0.2 mm 2 mps 738 mmHg 83%
11:00 +21°C° 0.2 mm 2 mps 738 mmHg 83%
12:00 +23°C° 0.1 mm 2 mps 738 mmHg 82%
13:00 +23°C° 0.1 mm 2 mps 738 mmHg 81%
14:00 +22°C° 0.1 mm 3 mps 738 mmHg 81%
15:00 +24°C° 0.1 mm 3 mps 738 mmHg 77%
16:00 +24°C° 0.1 mm 3 mps 738 mmHg 74%
17:00 +25°C° 0.1 mm 4 mps 738 mmHg 71%
18:00 +22°C° 0.1 mm 3 mps 738 mmHg 78%
19:00 +21°C° 0.1 mm 3 mps 738 mmHg 84%
20:00 +19°C° 0.1 mm 3 mps 738 mmHg 91%
21:00 +19°C° 0 mm 3 mps 738 mmHg 93%
22:00 +18°C° 0 mm 3 mps 738 mmHg 94%
23:00 +17°C° 0 mm 3 mps 738 mmHg 96%
Show more